Location: Kawakawa
(35.3830°S, 174.0670°E)
Time: 06:08:18
(UTC+13:00)

Altair - Pass Details

Date: 15 December 2019
Orbit: 1502 x 1682 km, 47.2° (Epoch: 23 January)

Event Time Altitude Azimuth Distance (km) Brightness Sun altitude
Rises 17:30:13 0° 243° (WSW) 4,943 11.0 34.7°
Reaches altitude 10° 17:34:00 10° 254° (WSW) 3,957 11.0 34.0°
Maximum altitude 17:42:02 28° 307° (NW) 2,797 9.9 32.3°
Drops below altitude 10° 17:50:01 10° 360° (N) 3,905 9.6 30.7°
Sets 17:53:46 0° 11° (N) 4,867 9.9 30.0°
